Weather History for KBYG - October, 2013

Change the Weather History Date:

Thursday, October 31, 2013

  Actual Average Record
Temperature  
Mean Temperature 40 °F 41 °F  
Max Temperature 49 °F 53 °F 77 °F (1999)
Min Temperature 30 °F 30 °F 3 °F (2002)
Degree Days  
Heating Degree Days 25 24  
Month to date heating degree days 687 592  
Since 1 July heating degree days 839 906  
Cooling Degree Days 0 0  
Month to date cooling degree days 0 1  
Year to date cooling degree days 709 492  
Moisture  
Dew Point 28 °F    
Average Humidity 61    
Maximum Humidity 75    
Minimum Humidity 46    
Precipitation  
Precipitation 0.03 in 0.01 in 0.22 in (2000)
Month to date precipitation 2.25 0.93  
Year to date precipitation 10.01 12.51  
Sea Level Pressure  
Sea Level Pressure 29.81 in    
Wind  
Wind Speed 12 mph (NW)    
Max Wind Speed 32 mph    
Max Gust Speed 41 mph    
Visibility 10 miles    
Events Rain    
T = Trace of Precipitation, MM = Missing Value Source: NWS Daily Summary

Daily Weather History Graph

Daily Weather History Graph

Search for Another Location

Airport or City:

Trip Planner

Search our weather history database for the weather conditions in past years. The results will help you decide how hot, cold, wet, or windy it might be!

Date:

Astronomy

Oct. 31, 2013 Rise Set
Actual Time 7:43 AM MDT 5:57 PM MDT
Civil Twilight 7:12 AM MDT 6:27 PM MDT
Nautical Twilight 6:38 AM MDT 7:01 PM MDT
Astronomical Twilight 6:04 AM MDT 7:35 PM MDT
Moon 4:29 AM MDT (10/31) 4:22 PM MDT (10/31)
Length of Visible Light 11h 14m
Length of Day
10h 14m
Waning Crescent, 9% of the Moon is Illuminated
Oct 31
Waning Crescent
Nov 3
New
Nov 9
First Quarter
Nov 17
Full
Nov 25
Last Quarter

Hourly Weather History & Observations

Time (MDT) Temp. Windchill Dew Point Humidity Pressure Visibility Wind Dir Wind Speed Gust Speed Precip Events Conditions
12:53 AM 34.0 °F 28.8 °F 26.1 °F 73% 29.82 in 10.0 mi NNW 5.8 mph - N/A   Clear
1:53 AM 33.1 °F 25.5 °F 26.1 °F 75% 29.79 in 10.0 mi WSW 9.2 mph - N/A   Clear
2:53 AM 32.0 °F 27.5 °F 25.0 °F 75% 29.78 in 10.0 mi SW 4.6 mph - N/A   Clear
3:53 AM 32.0 °F 27.5 °F 24.1 °F 73% 29.78 in 10.0 mi North 4.6 mph - N/A   Clear
4:53 AM 30.9 °F 23.5 °F 23.0 °F 72% 29.79 in 10.0 mi WNW 8.1 mph - N/A   Clear
5:53 AM 30.0 °F 24.1 °F 23.0 °F 75% 29.82 in 10.0 mi West 5.8 mph - N/A   Clear
6:53 AM 32.0 °F 23.6 °F 23.0 °F 69% 29.82 in 10.0 mi NW 10.4 mph - N/A   Clear
7:53 AM 33.1 °F 27.7 °F 26.1 °F 75% 29.85 in 10.0 mi West 5.8 mph - N/A   Mostly Cloudy
8:53 AM 36.0 °F 31.1 °F 28.0 °F 73% 29.84 in 10.0 mi WSW 5.8 mph - N/A   Overcast
9:53 AM 37.9 °F 35.5 °F 28.9 °F 70% 29.83 in 10.0 mi Variable 3.5 mph - N/A   Mostly Cloudy
10:53 AM 42.1 °F 38.4 °F 30.0 °F 62% 29.81 in 10.0 mi South 5.8 mph - N/A   Scattered Clouds
11:53 AM 45.0 °F 42.6 °F 28.9 °F 53% 29.81 in 10.0 mi ESE 4.6 mph - N/A   Mostly Cloudy
12:53 PM 48.0 °F - 28.9 °F 48% 29.77 in 10.0 mi South 6.9 mph - N/A   Mostly Cloudy
1:53 PM 48.9 °F - 28.9 °F 46% 29.73 in 10.0 mi SE 8.1 mph - N/A   Mostly Cloudy
2:53 PM 48.0 °F - 30.0 °F 50% 29.75 in 10.0 mi NW 11.5 mph 19.6 mph N/A   Overcast
3:53 PM 46.9 °F - 33.1 °F 59% 29.75 in 10.0 mi NNW 6.9 mph - 0.00 in Rain Light Rain
4:53 PM 45.0 °F 40.1 °F 35.1 °F 68% 29.77 in 10.0 mi NNW 9.2 mph - 0.02 in Rain Light Rain
5:53 PM 44.1 °F 37.1 °F 35.1 °F 71% 29.79 in 10.0 mi NNW 15.0 mph 23.0 mph 0.00 in   Overcast
6:53 PM 43.0 °F 33.8 °F 30.9 °F 62% 29.80 in 10.0 mi NNW 23.0 mph 28.8 mph 0.01 in   Mostly Cloudy
7:53 PM 42.1 °F 32.6 °F 30.0 °F 62% 29.82 in 10.0 mi NNW 23.0 mph 39.1 mph N/A   Mostly Cloudy
8:53 PM 42.1 °F 33.6 °F 28.9 °F 60% 29.83 in 10.0 mi NNW 18.4 mph 27.6 mph N/A   Clear
9:53 PM 42.1 °F 32.1 °F 26.1 °F 53% 29.85 in 10.0 mi NNW 25.3 mph 40.3 mph N/A   Clear
10:53 PM 42.1 °F 31.9 °F 25.0 °F 51% 29.87 in 10.0 mi NNW 26.5 mph 39.1 mph N/A   Mostly Cloudy
11:53 PM 39.0 °F 27.8 °F 28.9 °F 67% 29.90 in 10.0 mi NNW 26.5 mph 38.0 mph 0.00 in Rain Light Rain